SL-8 R/B (5730 NORAD) Tracking and Keplerian Element Data

This shows tracking and keplerian element data for the satellite.

Feedback or suggestion? Click here.




ElementValue
Catalog5730
NameSL-8 R/B
Epoch Orbit54314
Epoch Day12.9525313
Epoch Year2024
RAAN185.1074
Inclination73.8924
Eccentricity0.0628218
Argument of Perigee311.667
Mean Anonmoly43.2281
Mean Motion14.1846483
Decay Rate7.138E-05
L11 05730U 71119B 24012.95253130 .00007138 00000+0 42549-3 0 9996
L22 05730 73.8924 185.1074 0628218 311.6670 43.2281 14.18464830543143



Live tracking and technical data element details for SL-8 R/B (NORAD 5730). SL-8 R/B can be tracked NOW for your location showing map with azimuth and elevation plus other details from your city location.







IsCatalogInMostPopularTable: catalog: 5730, numindb: 372
Update: records affected: 1



GetName: 5730 SL-8 R/B

Hit Count: updated at: Sun, 14 Apr 2024 22:58:53 GMT